Location: Kumla
(59.1265°N, 15.1401°E)
Time: 08:41:02
(UTC+01:00)

A-11 Canister half - Pass Details

Date: 11 December 2023
Orbit: 1526 x 1682 km, 47.3° (Epoch: 04 March)

Event Time Altitude Azimuth Distance (km) Brightness Sun altitude
Rises 18:59:37 0° 238° (WSW) 4,925 12.5 -28.1°
Reaches altitude 10° 19:03:01 10° 231° (SW) 3,942 11.7 -28.6°
Maximum altitude 19:12:08 40° 167° (SSE) 2,309 9.7 -29.7°
Enters shadow 19:13:45 38° 147° (SSE) 2,376 9.6 -29.9°
